www.pogodaiklimat.ru

Погода и климат >> Архив погоды >> Россия >> Приморский край >> Находка


АРХИВ ПОГОДЫ в Находке

Время (UTC), дата Ветер
(напр.,м/с)
 
Видим.   Явления Облачность Т
(С)
Тd
(С)
f
(%)
Тe
(С)
Тes
(С)
Комфортность P
(гПа)
Po
(гПа)
Тmin
(С)
Tmax
(С)
R
(мм)
R24
(мм)
S
(см)
06 9.01 З 6-10
{15}
50 км 1/0
[Ci fib]
-1.4 -16.2 31 -7 -7 тепло 1020.9 1013.8
09 9.01 З 5-10
{11}
20 км ясно -2.1 -14.5 38 -8 -8 тепло 1020.2 1013.1 -1.0
12 9.01 СЗ 2 20 км ясно -1.3 -11.4 46 -4 -4 тепло 1019.1 1012.0
15 9.01 В 1
{11}
20 км ясно -8.4 -15.8 55 -10 -10 тепло 1019.1 1011.8
18 9.01 В 1 20 км ясно -11.4 -15.4 72 -14 -14 тепло 1018.6 1011.2
21 9.01 В 1 20 км ясно -11.7 -16.2 69 -14 -14 тепло 1017.5 1010.1 -12.1
00 10.01 В 1 50 км 10/0
[Cs]
-11.5 -15.1 75 -14 -13 тепло 1016.6 1009.2 -12.7
03 10.01 СЗ 3 50 км 1/0
[Ci fib]
-0.4 -18.7 24 -4 -0 тепло 1014.3 1007.2
06 10.01 СЗ 5-10
{12}
50 км ясно +1.6 -20.0 18 -3 -2 тепло 1012.5 1005.5
09 10.01 СЗ 5
{12}
20 км ясно -0.7 -18.6 24 -6 -6 тепло 1015.4 1008.3 +2.0
12 10.01 СЗ 6-13
{16}
20 км ясно -2.2 -18.2 28 -8 -8 тепло 1018.5 1011.4
15 10.01 СВ 3
{13}
20 км ясно -5.8 -19.8 32 -11 -11 тепло 1022.1 1014.9
18 10.01 С 2 20 км ясно -6.7 -20.1 34 -10 -10 тепло 1024.0 1016.7
21 10.01 СВ 2 20 км ясно -7.9 -17.2 47 -12 -12 тепло 1025.2 1017.9 -8.2
00 11.01 ЮВ 1 50 км ясно -8.2 -16.2 52 -10 -9 тепло 1026.7 1019.3 -10.2
03 11.01 В 2 50 км ясно -3.1 -16.8 34 -6 -2 тепло 1025.5 1018.3
06 11.01 Ю 2 50 км ясно -0.8 -17.6 27 -3 -2 тепло 1024.0 1016.9
09 11.01 З 1 20 км ясно -2.9 -17.7 31 -4 -4 тепло 1024.6 1017.4 -0.3
12 11.01 ЮЗ 1 20 км ясно -5.5 -15.7 44 -7 -7 тепло 1025.4 1018.1
15 11.01 С 1 20 км ясно -6.8 -17.7 42 -9 -9 тепло 1025.5 1018.2
18 11.01 В 1 20 км ясно -9.1 -16.4 55 -11 -11 тепло 1025.0 1017.6
21 11.01 СВ 2 20 км ясно -9.7 -17.0 55 -14 -14 тепло 1024.7 1017.3 -9.7
00 12.01 штиль 0 50 км ясно -8.5 -14.7 61 -9 -7 тепло 1025.3 1017.9 -10.1
03 12.01 В 1 50 км ясно -1.7 -19.4 24 -3 +3 тепло 1023.7 1016.5
09 12.01 Ю 1 20 км 10/0
[Cc]
-1.5 -6.4 69 -3 -3 тепло 1024.1 1016.9 +2.1
09 14.01 ЮЗ 2 20 км 9 баллов -0.8 -7.4 61 -4 -4 тепло 1023.1 1016.0 +1.3
15 14.01 СЗ 1 20 км 10 баллов -1.9 -6.6 70 -4 -4 тепло 1020.5 1013.3
21 14.01 СВ 1 20 км 9 баллов -4.8 -6.9 85 -7 -7 тепло 1016.5 1009.3 -4.8
00 15.01 СЗ 1 4000 м дым 10 баллов -3.8 -6.7 80 -6 -6 тепло 1013.9 1006.7
00 16.01 СВ 1 50 км ясно -12.3 -23.4 39 -15 -13 тепло 1020.7 1013.3 -14.3

 

Местоположение метеостанции Находка (Приморский край, Россия): широта 42.80 долгота 132.80 высота над уровнем моря 56 м.

В архиве по умолчанию представлена погода в Находке за последнюю неделю. Архивные данные за месяц целиком и за предыдущие месяцы, начиная с января 2011 года, Вы можете получить, выбрав интересующий диапазон дат из раскрывающегося списка и нажав кнопку "Ввод!".


*Определитесь, кто Вы:
робот инопланетянин человек

Внимание! Время в таблицах - всемирное. Для получения местного времени необходимо прибавить поправку, которая равна 10 ч.

Смотрите также архив погоды в соседних городах и на ближайших метеорологических станциях:

Погода в Партизанске (Приморский край, Россия) (42 км)
Погода на Мысе Назимова (Приморский край, Россия) (78 км)
Погода в Многоудобном (Приморский край, Россия) (79 км)
Погода в Владивостоке (Приморский край, Россия) (81 км)
Погода в Преображении (Приморский край, Россия) (90 км)
Погода в Лазо (Приморский край, Россия) (105 км)
Погода в Барабаше (Приморский край, Россия) (122 км)
Погода в Анучино (Приморский край, Россия) (131 км)
Погода в Гамове (Приморский край, Россия) (132 км)
Погода в Тимирязевском (Приморский край, Россия) (140 км)

Пояснения к столбцам:

Ветер - указаны скорость ветра в м/с - средняя за 10 мин, порывы в срок и между сроками (в фигурных скобках) и направление, откуда дует ветер: С - северный, СВ - северо-восточный, В - восточный, ЮВ - юго-восточный, Ю - южный, ЮЗ - юго-западный, З - западный, СЗ - северо-западный.
Видимость - горизонтальная дальность видимости в метрах или километрах. При видимости от 1 до 10 км при отсутствии осадков обычно наблюдается дымка, при ухудшении видимости до 1 км и менее - туман. В сухую погоду видимость может ухудшаться дымом, пылью или мглою.
Явления - указаны атмосферные явления, наблюдавшиеся в срок или в последний час перед сроком; фигурными скобками обозначены явления, наблюдавшиеся между сроками (за 1-3 часа до срока); квадратными скобками обозначены град или гололедные отложения с указанием их диаметра в мм.
Облачность - указаны через наклонную черту общая и нижняя облачность в баллах и высота нижней границы облаков в метрах; квадратными скобками обозначены формы облаков: Ci - перистые, Cs - перисто-слоистые, Cc - перисто-кучевые, Ac - высококучевые, As - высокослоистые, Sc - слоисто-кучевые, Ns - слоисто-дождевые, Cu - кучевые, Cb - кучево-дождевые. Подробнее классификацию облаков см. в Атласе облаков (PDF).
T - Температура воздуха - температура, измеренная на высоте 2 м над землей.
Td - Температура точки росы - температура, при понижении до которой содержащийся в воздухе водяной пар достигнет насыщения.
f - Относительная влажность воздуха - влажноcть воздуха, измеренная на высоте 2 м над землей.
Te - Эффективная температура - температура, которую ощущает одетый по сезону человек в тени. Характеристика душности погоды. При расчете учитывается влияние влажности воздуха и скорости ветра на теплоощущения человека.
Tes - Эффективная температура на солнце - температура, которую ощущает человек, с поправкой на солнечный нагрев. Характеристика знойности погоды. Зависит от высоты солнца над горизонтом, облачности и скорости ветра. Ночью, в пасмурную погоду, а также при ветре 12 м/с и более поправка равна нулю.
P - Атмосферное давление - приведенное к уровню моря атмосферное давление.
Po - Атмосферное давление - измеренное на уровне метеостанции атмосферное давление.
Tmin - Минимальная температура - минимум температуры воздуха на высоте 2 м над землей.
Tmax - Максимальная температура - максимум температуры воздуха на высоте 2 м над землей.
R - Количество осадков - Количество выпавших осадков за период времени, мм. При наведении курсора мыши на число - период времени, за который выпало указанное количество осадков.
R24 - Количество осадков - Количество выпавших осадков за 24 часа, мм.
S - Снежный покров - Высота снежного покрова, см. При наведении курсора мыши на число - состояние снежного покрова и степень покрытия местности в баллах.